Theta_e
333 338 345 345 344 343 344 346 345 346 342 340 338 336 335 335 334 334 334 335 334 335 335 335 334 334 334 334 334 334 333 334 333 334 335 335 335 334 335 333 332 331 333
335 340 343 345 346 344 343 345 345 345 342 340 337 336 335 334 335 334 334 335 335 335 335 334 333 333 332 332 333 334 334 332 333 332 331 329 332 333 334 334 334 332 333
335 339 343 345 345 345 347 346 345 345 343 340 337 336 335 335 334 334 334 334 334 334 335 336 335 334 333 333 334 334 333 331 329 327 327 327 328 333 333 333 333 333 334
337 341 343 343 345 346 348 348 347 346 345 340 337 336 335 335 335 335 334 334 334 334 336 334 334 334 334 333 333 333 333 332 329 326 325 325 326 331 334 333 333 333 333
339 341 342 343 346 347 347 347 347 345 344 339 337 336 336 335 335 335 334 334 334 334 335 334 334 333 333 332 332 332 332 331 327 325 327 327 329 327 334 334 333 333 334
337 339 341 344 346 347 346 347 346 345 343 339 336 336 336 336 336 334 333 333 334 333 333 333 333 334 334 334 333 332 331 330 325 326 325 325 326 329 333 334 333 335 336
336 338 341 342 345 345 346 346 345 344 343 338 338 338 337 337 336 332 332 333 332 332 332 332 333 333 334 334 334 333 332 330 327 326 326 326 326 333 333 334 333 334 335
334 336 338 335 339 342 343 343 343 342 339 337 336 336 336 335 332 332 332 332 331 332 332 332 333 333 334 334 334 333 331 329 327 327 327 327 327 335 334 334 335 335 336
335 334 335 336 335 334 336 337 337 337 336 336 336 335 335 334 333 332 332 331 331 331 332 332 333 334 334 334 333 331 329 327 329 328 327 328 330 338 337 335 336 337 337
333 332 332 333 333 334 335 330 331 333 335 335 334 331 329 330 329 328 326 329 330 330 331 333 335 335 334 332 330 329 326 326 330 328 329 329 333 336 337 336 336 337 336
330 330 331 330 330 331 333 328 328 330 330 330 328 325 324 326 326 326 325 327 329 330 332 333 333 332 329 328 329 326 325 328 328 328 326 327 332 335 335 336 335 334 334
327 328 328 328 328 328 330 329 331 331 331 329 328 327 327 327 328 327 321 322 325 324 328 331 332 328 326 327 326 324 324 323 322 323 326 328 332 334 336 334 333 333 332
326 327 327 326 326 327 326 326 326 326 326 326 326 326 327 328 328 328 329 329 329 321 330 331 328 325 322 322 322 321 318 319 321 319 318 327 334 334 333 330 330 329 328
324 325 325 326 325 325 325 324 325 324 325 326 327 328 328 328 328 328 329 330 332 330 329 328 323 321 317 317 318 316 317 318 318 313 314 317 324 327 327 327 327 326 326
322 325 325 326 324 323 323 323 324 325 326 327 328 328 327 327 327 328 330 327 325 324 322 320 318 314 311 313 314 315 314 315 314 310 308 311 317 321 324 325 327 327 324
322 324 325 326 324 323 321 323 324 326 326 327 328 328 327 327 327 327 323 320 318 318 316 315 310 307 305 310 312 311 310 307 302 301 301 305 312 316 320 321 319 318 318
323 324 324 326 325 322 321 323 324 326 327 326 325 325 326 328 324 322 318 314 312 313 313 312 307 304 303 308 309 308 304 299 297 298 300 301 305 311 311 311 311 312 313
324 324 325 327 325 322 320 324 326 324 319 317 317 318 319 320 319 316 311 308 306 306 309 305 305 301 300 306 306 305 300 296 296 297 298 299 301 303 303 302 303 305 308
323 324 324 326 324 322 323 320 315 313 310 309 309 310 312 312 311 308 304 303 302 301 302 303 300 299 298 303 303 300 297 294 294 295 296 296 297 297 294 294 294 297 301
322 324 324 324 323 321 316 311 308 305 303 302 302 303 303 303 303 302 301 300 299 299 298 300 298 298 297 301 301 299 296 293 293 293 294 296 294 292 291 289 288 288 294
321 322 323 322 321 317 313 309 307 302 299 298 298 299 299 300 300 300 300 298 296 296 295 296 298 296 294 296 303 298 295 291 290 291 294 294 293 291 289 287 286 285 286
319 322 323 322 319 318 317 312 305 300 297 296 296 296 297 298 298 298 297 296 295 295 294 293 295 296 294 293 293 298 297 295 291 288 291 292 291 290 288 286 284 284 284
319 321 323 322 319 320 309 301 298 297 295 294 294 294 295 296 296 296 295 295 294 294 292 291 292 293 292 292 291 293 290 289 290 294 287 289 290 289 287 286 284 283 283
313 318 320 321 317 309 306 302 301 300 294 293 293 293 294 296 296 295 294 293 293 292 290 290 290 290 291 289 291 290 289 288 286 285 290 286 288 288 286 285 283 282 282
306 307 308 308 309 307 305 304 300 295 293 293 293 294 294 293 293 293 293 292 290 289 289 289 288 288 288 287 287 287 287 286 285 284 282 283 285 286 286 284 283 282 281
303 303 302 300 298 299 299 297 296 293 292 293 294 292 291 291 291 291 290 289 288 288 287 287 287 286 286 286 285 284 283 282 280 281 281 280 280 284 286 284 282 281 281
Wind_Speed
7 9 10 12 13 12 11 13 17 16 16 14 14 13 13 13 11 13 12 13 12 13 12 12 12 12 11 11 11 11 11 10 8 10 11 12 11 11 11 10 8 8 10
12 10 9 11 13 13 12 11 15 16 15 15 14 14 13 13 12 11 11 12 12 12 12 11 11 11 10 9 9 10 10 9 8 8 9 10 12 12 10 8 8 9 10
12 9 10 9 9 11 12 11 14 15 16 15 14 13 13 13 12 11 11 10 10 10 10 10 11 11 10 9 9 10 11 10 8 8 7 5 7 11 10 9 9 8 8
12 9 9 8 9 12 14 14 14 14 16 15 14 13 12 12 11 11 11 10 10 9 10 10 10 10 10 9 9 9 9 9 8 7 4 5 6 10 10 10 9 9 8
11 10 8 8 8 12 16 14 13 15 15 14 13 12 11 11 11 10 10 9 9 9 9 9 9 9 9 9 8 8 8 7 7 5 5 5 4 6 10 10 7 7 7
12 10 9 9 10 14 16 14 16 15 16 14 13 13 12 11 10 9 9 8 8 8 8 8 9 9 9 9 9 8 7 7 5 5 5 5 5 6 7 8 7 7 6
11 9 8 10 12 14 15 15 15 15 14 14 13 11 11 11 10 9 8 7 7 7 7 7 8 8 8 8 8 8 8 6 5 5 5 5 6 9 7 8 7 7 8
13 9 8 8 10 12 14 13 13 12 12 13 12 11 10 9 9 8 7 6 6 6 6 7 7 7 7 8 8 8 7 7 5 5 6 6 9 11 8 9 10 10 10
11 10 8 8 9 10 12 12 11 11 11 11 11 10 9 7 7 7 5 5 5 5 6 6 7 7 8 9 8 8 8 7 6 4 5 4 10 14 10 9 11 13 11
10 9 9 8 8 8 8 10 11 10 10 9 9 9 8 7 6 5 4 4 4 5 5 7 8 9 9 9 9 10 9 6 7 6 5 6 12 13 10 11 13 14 15
8 9 9 9 8 7 8 7 9 10 9 8 7 7 6 4 3 3 2 3 4 5 6 7 9 10 8 7 8 9 6 5 6 6 5 11 11 10 12 15 14 15 16
13 11 9 9 9 8 6 6 6 6 5 5 5 5 3 3 2 1 2 4 4 6 6 8 10 9 7 6 5 6 5 6 6 6 6 10 7 11 15 17 17 18 18
13 9 11 9 9 9 7 5 3 3 3 4 5 4 3 2 1 1 1 2 2 4 3 5 6 6 7 5 5 5 6 6 5 7 12 17 16 17 18 18 17 17 17
13 11 12 10 9 8 6 6 6 4 4 3 3 4 3 2 2 1 2 2 3 3 4 4 4 5 7 7 6 7 7 6 6 6 13 19 19 18 16 16 17 17 17
16 11 11 10 9 8 8 6 6 6 4 4 3 3 3 2 2 1 3 4 4 4 4 4 5 5 6 6 7 8 10 10 10 7 7 20 20 19 17 18 21 24 22
16 13 11 11 9 9 7 8 6 6 5 4 3 3 4 3 3 4 4 5 5 4 4 4 5 6 6 6 8 10 11 10 11 10 7 10 22 18 21 25 24 22 21
16 12 14 11 9 9 9 7 5 5 5 4 4 4 3 4 5 5 5 5 4 3 6 5 6 6 6 6 9 9 10 11 10 11 9 8 10 22 25 24 24 23 22
14 14 12 10 11 9 7 6 5 5 5 5 4 5 7 7 6 6 5 5 4 4 4 5 4 6 5 6 7 7 8 9 11 11 10 9 8 9 16 23 22 22 22
13 13 12 11 11 9 8 7 7 8 6 5 5 6 8 8 8 7 5 5 5 5 5 4 6 4 5 5 8 7 6 7 8 8 11 11 11 10 8 17 21 23 22
12 12 12 10 11 11 8 8 6 7 6 5 6 6 8 7 9 7 7 7 6 6 5 4 6 6 4 3 7 7 6 6 8 8 9 9 11 12 11 12 10 12 21
11 12 13 12 13 10 7 6 5 5 5 5 6 8 7 8 8 8 6 7 7 7 6 5 2 6 6 5 3 5 6 8 10 8 7 7 10 10 10 10 8 8 9
13 13 13 14 14 10 7 5 5 5 5 6 5 8 8 8 8 8 8 7 6 5 6 7 6 1 4 6 2 0 4 3 5 8 6 7 8 7 8 10 12 12 10
13 13 13 13 14 11 11 9 8 8 6 4 6 7 8 9 10 9 9 7 7 5 5 6 6 5 3 6 11 3 1 1 1 2 7 5 7 6 7 8 11 12 11
6 8 10 13 11 10 11 9 14 7 7 4 6 7 7 9 10 9 9 8 7 5 6 7 6 6 3 4 3 7 8 3 1 2 2 5 5 6 7 6 8 10 11
7 7 7 9 8 10 9 10 8 10 9 8 7 10 9 9 10 10 8 8 7 6 8 9 9 10 7 5 4 3 4 4 5 3 1 3 3 4 4 5 7 8 11
7 8 8 10 9 9 10 10 11 15 14 11 8 7 5 6 6 7 8 7 9 8 8 8 9 10 9 9 8 8 6 4 3 3 2 3 4 2 2 4 5 7 9
Wind_Direction
169 166 163 151 152 149 149 137 136 130 125 118 116 116 112 108 107 100 97 93 93 83 83 79 76 73 71 66 62 57 50 53 62 52 38 25 30 51 48 40 39 36 29
149 163 171 155 148 151 153 144 147 135 130 121 120 121 117 116 113 110 105 92 88 83 78 75 73 71 69 66 62 55 48 54 61 43 26 18 4 35 47 43 33 30 28
146 156 155 139 150 164 162 150 145 143 136 125 123 123 124 119 116 108 92 90 87 85 86 81 78 72 67 66 66 59 56 55 49 39 35 24 360 6 42 32 23 23 17
141 142 133 137 155 167 170 156 152 153 135 125 127 127 127 120 117 112 103 94 89 89 84 77 71 67 64 61 58 56 54 50 38 31 27 13 356 349 30 31 18 13 2
136 136 136 133 143 168 159 152 152 147 129 126 128 129 129 121 113 105 102 95 90 83 78 75 71 65 58 54 50 45 44 45 40 27 18 3 347 339 351 25 16 5 350
138 136 133 124 126 129 141 147 146 141 126 130 133 137 130 125 119 110 109 105 96 85 78 72 67 61 55 49 45 41 36 28 18 12 1 349 336 324 324 352 5 3 349
141 137 136 114 116 125 131 133 133 135 128 134 133 126 127 114 118 119 113 103 91 77 67 61 52 45 37 33 27 19 11 3 2 357 351 344 342 333 311 317 337 338 338
148 140 135 119 111 115 119 121 113 117 131 134 137 136 133 130 127 122 114 104 91 77 64 51 43 36 28 24 17 13 7 3 355 353 352 347 335 328 327 313 320 323 325
149 139 136 130 120 111 112 113 123 129 130 134 139 134 123 120 117 109 101 96 79 56 43 33 25 17 11 7 6 7 7 10 2 355 352 345 334 328 325 322 324 331 335
155 147 142 132 128 126 128 124 124 125 126 124 122 122 119 114 110 106 85 55 53 43 24 15 13 7 6 5 8 7 12 12 12 10 12 359 341 344 11 35 31 32 33
164 157 154 146 140 138 133 133 129 135 136 130 126 120 116 126 122 119 82 35 30 24 13 12 21 26 27 26 28 25 23 19 16 15 10 348 347 9 41 50 48 50 48
171 169 165 155 149 145 142 141 141 142 140 137 136 135 125 119 108 56 21 355 22 20 25 35 42 36 27 22 22 26 35 26 35 31 19 338 345 43 58 56 51 50 50
172 171 177 164 158 154 148 147 147 145 140 142 148 148 135 127 128 78 37 35 29 41 48 49 44 38 31 27 34 40 30 38 58 53 23 24 53 57 54 49 42 41 38
176 180 182 171 165 159 152 157 156 155 151 158 159 152 151 145 132 70 55 45 62 74 70 60 53 49 41 37 39 39 49 71 77 61 35 29 46 52 53 54 51 48 45
183 178 183 176 170 167 162 162 160 161 163 152 157 157 157 147 121 115 102 75 59 50 58 56 49 51 47 46 44 57 65 67 67 66 55 38 44 48 53 54 53 50 43
189 178 182 184 172 165 168 174 170 159 154 154 151 162 169 158 151 116 91 69 57 50 59 68 57 48 43 43 63 71 73 71 66 65 60 51 44 44 56 54 47 44 43
189 180 178 176 173 173 181 173 166 162 150 143 134 125 110 122 107 103 88 70 53 46 70 70 69 63 62 64 72 74 75 68 64 59 60 59 49 50 57 57 50 47 43
179 181 175 171 175 177 174 160 148 127 115 103 98 94 88 92 97 91 82 65 51 56 72 64 52 60 59 81 92 86 79 72 67 64 62 62 66 63 59 56 50 45 41
178 173 171 172 170 164 143 119 108 99 82 76 68 69 70 76 79 84 80 65 57 57 55 56 54 47 44 74 92 87 74 71 70 67 67 66 66 66 61 56 48 40 36
172 172 167 169 152 137 119 106 91 83 70 66 68 66 70 72 76 82 80 73 69 69 57 62 72 63 63 76 104 90 79 65 69 63 68 72 70 63 58 52 42 35 33
173 168 171 153 152 141 135 129 117 111 103 78 70 73 73 79 80 89 82 78 71 65 53 37 33 61 47 4 128 101 84 77 73 70 69 74 74 69 63 55 46 36 26
171 179 173 161 160 160 154 127 122 131 97 99 89 75 71 75 79 82 79 72 59 71 50 35 24 35 69 26 30 128 163 138 78 64 66 72 74 71 65 60 50 41 30
178 176 174 166 165 157 131 115 102 100 106 99 92 81 66 73 70 69 68 68 62 52 62 55 30 31 100 53 46 26 143 107 107 151 71 80 80 73 67 59 51 40 34
148 135 148 155 148 139 146 141 157 151 139 127 116 105 82 69 73 69 73 70 66 58 51 53 47 46 74 73 79 54 59 45 60 153 142 58 69 66 67 60 51 39 30
117 112 106 108 115 138 143 149 135 114 114 115 110 102 87 72 62 67 66 65 67 65 65 67 60 57 54 71 57 35 49 56 48 43 329 353 20 44 75 62 49 35 26
115 111 110 108 100 102 111 117 123 128 129 124 125 110 102 90 80 77 85 81 80 83 80 75 72 70 73 72 69 59 53 40 23 15 357 330 334 356 107 80 50 35 23